Flag for Germany Weather past 2 weeks in Heide, Schleswig-Holstein, Germany

Now
68 °F

Mild.


Feels Like: 68 °F
Forecast: 54 / 80 °F
Wind: 6 mph from West

Location: Hohn

Current Time: Aug 2, 2015 at 8:24:23 PM

Latest Report: Aug 2, 2015 at 7:20 PM


Visibility: 6 mi

Pressure: 30.12 "Hg

Humidity: 56%

Dew point: 52 °F

Location of HeideLocation

Historic Weather in Heide — Graph

°F

Heide temperature yesterday

Maximum temperature yesterday: 66 °F (at 2:20 PM)
Minimum temperature yesterday: 43 °F (at 3:20 AM)
Average temperature yesterday: 56 °F

Past Weeks' High & Low Weather Summary

 TemperatureHumidityPressure
High75 °F (Jul 22, 2:20 PM)100% (Jul 21, 4:20 AM)30.15 "Hg (Jul 21, 4:20 AM)
Low43 °F (Aug 1, 3:20 AM)46% (Jul 18, 6:20 PM)29.39 "Hg (Jul 28, 4:20 AM)
Average59 °F80%29.78 "Hg
* Reported Jul 18 6:20 PM — Aug 2 6:20 PM, Heide, Weather by CustomWeather, © 2015

Note: Actual official high and low records may vary slightly from our data, if they occured in-between our weather recording intervals... More about our weather records

Advertising

Heide weather history for previous 24 hours

 ConditionsComfort  
Time TempWeatherWind HumidityBarometerVisibility
6:20 PM
Sun, Aug 2
68 °FMild.6 mph56%30.12 "HgN/A
5:20 PM70 °FMild.8 mph50%30.12 "HgN/A
4:20 PM70 °FMild.10 mph46%30.12 "HgN/A
3:20 PM70 °FMild.10 mph46%30.12 "HgN/A
2:20 PM70 °FMild.9 mph50%30.12 "Hg6 mi
1:20 PM70 °FMild.9 mph50%30.15 "Hg6 mi
12:20 PM68 °FMild.8 mph46%30.12 "Hg4 mi
11:20 AM66 °FMild.7 mph56%30.12 "Hg4 mi
10:20 AM64 °FMild.7 mph60%30.09 "Hg4 mi
9:20 AM61 °FCool.5 mph77%30.09 "Hg3 mi
8:20 AM57 °FCool.2 mph82%30.09 "Hg3 mi
7:20 AM52 °FCool.No wind94%30.07 "Hg3 mi
6:20 AM48 °FCool.No wind94%30.07 "Hg1 mi
5:20 AM48 °FCool.No wind94%30.07 "Hg2 mi
4:20 AM48 °FCool.No wind94%30.07 "Hg1 mi
3:20 AM48 °FCool.2 mph94%30.07 "Hg3 mi
2:20 AM48 °FCool.5 mph100%30.07 "Hg3 mi
1:20 AM50 °FCool.1 mph94%30.07 "Hg0 mi
12:20 AM52 °FCool.2 mph88%30.07 "Hg4 mi
11:20 PM
Sat, Aug 1
55 °FCool.3 mph88%30.04 "Hg4 mi
10:20 PM57 °FCool.3 mph77%30.04 "Hg4 mi
9:20 PM59 °FCool.8 mph72%30.04 "Hg5 mi
8:20 PM61 °FCool.9 mph68%30.04 "Hg5 mi
Weather by CustomWeather, © 2015

See weather overviewHow to use our weather pages